User: anonymous   Login
Location: Potawatomi Wildlife Park
(41.2308°N, 86.1050°W)
Time: 12:11:19
(UTC-04:00)
Language:

SL-16 R/B - Orbit

View from above orbital plane
View from above orbital plane
View from above satellite
View from above satellite

Ground track
Ground track

The orbit data is extracted from the following two-line orbital elements,

1 27006U 01056F   16236.46219741 -.00000009  00000-0  37569-4 0  9993
2 27006  99.2691  21.5092 0014707   9.6954  36.7193 13.70971639735701
Epoch (UTC): 23 August 2016 11:05:33
Eccentricity: 0.0014707
inclination: 99.2691°
perigee height: 985 km
apogee height: 1007 km
right ascension of ascending node: 21.5092°
argument of perigee: 9.6954°
revolutions per day: 13.70971639
mean anomaly at epoch: 36.7193°
orbit number at epoch: 73570

The dashed part of the orbit path shows where the satellite is in the earth's shadow,  

DLR